Location: St. Louis
(38.6270°N, 90.1994°W)
Time: 13:29:44
(UTC-06:00)

Transit 4A - Pass Details

Date: 02 December 2021
Orbit: 864 x 980 km, 66.8° (Epoch: 16 January)

Event Time Altitude Azimuth Distance (km) Brightness Sun altitude
Rises 20:41:03 0° 246° (WSW) 3,455 11.4 -46.5°
Reaches altitude 10° 20:44:00 10° 260° (W) 2,533 10.7 -47.1°
Enters shadow 20:44:20 11° 262° (W) 2,442 10.6 -47.1°
Maximum altitude 20:48:39 24° 312° (NW) 1,773 - -47.9°
Drops below altitude 10° 20:53:25 10° 5° (N) 2,600 - -48.9°
Sets 20:56:30 0° 19° (NNE) 3,567 - -49.5°
